Regional Weather Roundup
Issued by NWS

Home | Current Version | Previous Version | Text Only | Print | Product List | Glossary Off
Versions: 1 2 3 4 5 6 7 8 9 10 11 12 13 14 15 16 17 18 19 20 21 22 23 24 25 26 27 28 29 30 31 32 33 34 35 36 37 38 39 40 41 42 43 44 45 46 47 48 49 50

000
ASUS43 KDTX 060601
RWRMI
MICHIGAN HOURLY REGIONAL WEATHER ROUNDUP
NATIONAL WEATHER SERVICE DETROIT/PONTIAC MI
100 AM EST FRI MAR 06 2015

NOTE: "FAIR" INDICATES FEW OR NO CLOUDS BELOW 12,000 FEET WITH NO
SIGNIFICANT WEATHER AND/OR OBSTRUCTION TO VISIBILITY.

MIZ047>049-052>055-059>063-066>070-074>076-081>083-060700-
SOUTHEAST LOWER MICHIGAN

CITY           SKY/WX    TMP DP  RH WIND       PRES   REMARKS
ADRIAN         PTCLDY     0  -5  79 CALM      30.51S
6HR MIN TEMP:   0; 6HR MAX TEMP:  16;

ALMA           PTCLDY     1  -2  86 S6        30.47F WCI -10
ANN ARBOR      MOCLDY    -5 -10  79 CALM      30.49S
BAD AXE        PTCLDY     1  -5  76 CALM      30.45S
6HR MIN TEMP:   0; 6HR MAX TEMP:   9;

CARO           PTCLDY    -7 -12  79 CALM      30.47S
DETROIT CITY   PTCLDY     9  -3  58 S5        30.50F WCI   1
6HR MIN TEMP:   8; 6HR MAX TEMP:  16;

DETROIT        PTCLDY     9  -1  64 CALM      30.51F
6HR MIN TEMP:   7; 6HR MAX TEMP:  16;

FLINT          PTCLDY     1  -6  72 SW3       30.48F
6HR MIN TEMP:  -1; 6HR MAX TEMP:  14;

GROSSE ILE     PTCLDY     7  -2  66 CALM      30.50S
HILLSDALE      FAIR       5   0  80 CALM      30.45F
6HR MIN TEMP:   4; 6HR MAX TEMP:  15;

HOWELL         MOCLDY     5  -1  75 SW3       30.46F
6HR MIN TEMP:   5; 6HR MAX TEMP:  13;


CITY           SKY/WX    TMP DP  RH WIND       PRES   REMARKS
JACKSON        PTCLDY     0  -4  83 S3        30.47F
6HR MIN TEMP:   0; 6HR MAX TEMP:  14;

LAMBERTVILLE   FAIR       3  -2  78 CALM      30.51S
LANSING        PTCLDY     6   1  80 SW5       30.48F WCI  -3
6HR MIN TEMP:   6; 6HR MAX TEMP:  13;

LAPEER         FAIR      -8 -12  83 CALM      30.47F
MASON          PTCLDY     2  -2  82 CALM      30.47F
MONROE         PTCLDY     1  -2  85 CALM      30.49S
MT. CLEMENS    PTCLDY     1  -6  71 SW1       30.47F
6HR MIN TEMP:  -2; 6HR MAX TEMP:  14;

PONTIAC        PTCLDY     0  -5  79 CALM      30.45F
6HR MIN TEMP:   0; 6HR MAX TEMP:  12;

PORT HOPE        N/A      4  -4  69 SW5       30.44F WCI  -5
6HR MIN TEMP:   4; 6HR MAX TEMP:   9;

PORT HURON     MOCLDY    -8 -11  84 CALM      30.49F
TRI CITIES     PTCLDY     4  -3  73 SW7       30.47F WCI  -8
6HR MIN TEMP:   3; 6HR MAX TEMP:  13;

TROY           PTCLDY    11   0  60 CALM      30.50F
SAGINAW HB     PTCLDY     5   0  78 SW6       30.48F WCI  -6
$$
MIZ043>046-050>051-056>058-064>065-071>073-077>080-060700-
SOUTHWEST LOWER MICHIGAN

CITY           SKY/WX    TMP DP  RH WIND       PRES   REMARKS
BATTLE CREEK   MOCLDY     3  -3  76 S3        30.47F
6HR MIN TEMP:   3; 6HR MAX TEMP:  15;

BENTON HARBOR  PTCLDY     7   2  80 S6        30.51S WCI  -3
6HR MIN TEMP:   1; 6HR MAX TEMP:  14;

BIG RAPIDS     MOCLDY    -3  -6  87 CALM      30.41F
6HR MIN TEMP:  -4; 6HR MAX TEMP:  10;

COLDWATER      PTCLDY    -1  -5  82 CALM      30.48S
6HR MIN TEMP:  -1; 6HR MAX TEMP:  14;

FREMONT        CLOUDY     6   1  76 CALM      30.44F
HOLLAND        CLOUDY     3  -3  76 S3        30.49S
6HR MIN TEMP:  -2; 6HR MAX TEMP:  12;

GRAND RAPIDS   PTCLDY     1  -3  83 S7        30.46F WCI -12
6HR MIN TEMP:   0; 6HR MAX TEMP:  13;

IONIA          FAIR       3  -1  83 S6        30.46F WCI  -8
KALAMAZOO      MOCLDY     3   0  87 S6        30.48S WCI  -8
6HR MIN TEMP:   3; 6HR MAX TEMP:  15;

LUDINGTON      PTCLDY    17   6  61 W7        30.43F WCI   7
6HR MIN TEMP:  15; 6HR MAX TEMP:  17;

MARSHALL       MOCLDY    -2  -6  85 CALM      30.47F
MOUNT PLEASANT PTCLDY     4  -1  78 CALM      30.43F
6HR MIN TEMP:   3; 6HR MAX TEMP:  14;

MUSKEGON       CLOUDY    13   6  74 MISG      30.47F
6HR MIN TEMP:  11; 6HR MAX TEMP:  13;

SOUTH HAVEN    MOCLDY     9   4  78 SW5       30.50S WCI   1
$$
MIZ016>042-060700-
NORTHERN LOWER MICHIGAN

CITY           SKY/WX    TMP DP  RH WIND       PRES   REMARKS
ALPENA         PTCLDY    -9 -15  75 SW5       30.40F WCI -20
6HR MIN TEMP: -10; 6HR MAX TEMP:   9;

BEAVER ISLAND  CLEAR     10   2  70 SW13      30.33F WCI  -5
6HR MIN TEMP:   7; 6HR MAX TEMP:  10;

BELLAIRE       PTCLDY    -3  -7  84 CALM      30.40F
6HR MIN TEMP:  -5; 6HR MAX TEMP:  11;

CADILLAC       CLEAR      1  -2  86 SW6       30.34F WCI -10
CHARLEVOIX     CLEAR      7   1  78 CALM      30.39F
6HR MIN TEMP:   6; 6HR MAX TEMP:   7;

FRANKFORT      CLEAR     16   5  61 W7        30.40F WCI   6
GAYLORD        MOCLDY     2  -2  83 SW7       30.31F WCI -11
6HR MIN TEMP:  -1; 6HR MAX TEMP:   7;

GRAYLING       PTCLDY     2  -3  79 SW3       30.35F
6HR MIN TEMP:  -4; 6HR MAX TEMP:  10;

HARBOR SPRINGS CLEAR     -1  -5  84 W3        30.35F
HOUGHTON LAKE  PTCLDY     3  -3  76 SW7       30.37F WCI  -9
6HR MIN TEMP:  -1; 6HR MAX TEMP:   8;

MANISTEE       PTCLDY     3  -2  78 CALM      30.41F
OSCODA         PTCLDY    -5 -10  77 SW6       30.43F WCI -17
PELLSTON       PTCLDY    -7 -11  83 SE5       30.36F WCI -18
6HR MIN TEMP: -13; 6HR MAX TEMP:   7;

ROGERS CITY    PTCLDY     2  -2  81 SW9       30.38F WCI -12
TRAVERSE CITY  CLEAR      6   0  76 CALM      30.38F
6HR MIN TEMP:   6; 6HR MAX TEMP:  11; 6HR PCP: TRACE;

$$
MIZ007>008-015-060700-
EASTERN UPPER MICHIGAN

CITY           SKY/WX    TMP DP  RH WIND       PRES   REMARKS
KINROSS        MOCLDY     1   0  92 SW5       30.31F WCI  -8
6HR MIN TEMP:   0; 6HR MAX TEMP:   7;

MACKINAC ISLAN PTCLDY     6  -1  75 S12       30.33F WCI -10
6HR MIN TEMP:   4; 6HR MAX TEMP:   7;

NEWBERRY       PTCLDY    -1  -2  92 SW9       30.28F WCI -16
S. S. MARIE    MOCLDY    -4  -9  79 E5        30.32F WCI -15
6HR MIN TEMP:  -4; 6HR MAX TEMP:   5;

MUNISING         N/A      6  -8  52 S9        30.29F WCI  -8
6HR MIN TEMP:   1; 6HR MAX TEMP:   6;

$$
MIZ004>006-011>014-085-060700-
CENTRAL UPPER MICHIGAN

CITY           SKY/WX    TMP DP  RH WIND       PRES   REMARKS
MANISTIQUE     PTCLDY     8  -4  58 SW5       30.32S WCI  -1
6HR MIN TEMP:   8; 6HR MAX TEMP:  12;

ESCANABA       PTCLDY     5  -8  56 W10       30.33F WCI -10
6HR MIN TEMP:   5; 6HR MAX TEMP:  10;

MENOMINEE      PTCLDY     5  -9  51 W3        30.36F
6HR MIN TEMP:   5; 6HR MAX TEMP:  12;

SAWYER-GWINN   CLEAR      3 -12  50 SW8       30.23F WCI -10
6HR MIN TEMP:   2; 6HR MAX TEMP:  13;

$$
MIZ001>003-009>011-084-060700-
WESTERN UPPER MICHIGAN

CITY           SKY/WX    TMP DP  RH WIND       PRES   REMARKS
IRON MOUNTAIN  CLEAR      4 -11  50 W6        30.27F WCI  -7
6HR MIN TEMP:   3; 6HR MAX TEMP:  13;

HOUGHTON       CLEAR      6 -10  47 W12       30.18F WCI  -9
6HR MIN TEMP:  -3; 6HR MAX TEMP:  10;

COPPER HARBOR    N/A      7  -8  50 W6        30.20F WCI  -3
6HR MIN TEMP:   3; 6HR MAX TEMP:  10;

IRONWOOD       PTCLDY     7  -6  56 SW15G21   30.18F WCI -11
6HR MIN TEMP:   5; 6HR MAX TEMP:  12;

$$

ABBREVIATIONS USED IN REMARKS
   TC - TEMPERATURE IN CELSIUS
  WCI - WIND CHILL INDEX
   HX - HEAT INDEX
  VSB - VISIBILITY



USA.gov is the U.S. government's official web portal to all federal, state and local government web resources and services.